NOW23 ENBO-ENBO

Flight info

Callsign NOW23
Flight time 0h 10m
Altitude 18000
Route WEST DEPARTURE
Aircraft RFAL/M-SDE1E2FGHIJ5RTUWXY/LB1D1

Departure

Time 2026-04-26 16:37
Airport Bodø Airport (ENBO)

Arrival

Time 2026-04-26 16:47
Airport Bodø Airport (ENBO)
Time Latitude Longitude Altitude Speed Heading
2026-04-26 16:37 67.19049 14.14996 19722 ft 682 kts 255°
2026-04-26 16:37 67.17530 14.02553 17763 ft 782 kts 257°
2026-04-26 16:37 67.15955 13.88014 16859 ft 883 kts 256°
2026-04-26 16:38 67.14468 13.72154 16859 ft 935 kts 264°
2026-04-26 16:38 67.15654 13.56305 15943 ft 954 kts 337°
2026-04-26 16:38 67.21017 13.62385 12517 ft 912 kts 68°
2026-04-26 16:38 67.21413 13.75721 7968 ft 545 kts 101°
2026-04-26 16:39 67.20900 13.84345 8075 ft 452 kts 89°
2026-04-26 16:39 67.21125 13.92776 8523 ft 493 kts 83°
2026-04-26 16:39 67.21384 14.01690 7960 ft 498 kts 86°
2026-04-26 16:39 67.21391 14.10303 7333 ft 452 kts 91°
2026-04-26 16:40 67.21239 14.18049 5495 ft 429 kts 91°
2026-04-26 16:40 67.21320 14.25704 4727 ft 430 kts 85°
2026-04-26 16:40 67.21661 14.33883 5918 ft 493 kts 81°
2026-04-26 16:40 67.22145 14.42865 7356 ft 524 kts 81°
2026-04-26 16:41 67.22563 14.52084 7249 ft 507 kts 84°
2026-04-26 16:41 67.22722 14.61034 7113 ft 492 kts 88°
2026-04-26 16:41 67.23060 14.69759 5558 ft 492 kts 51°
2026-04-26 16:41 67.26079 14.72090 4348 ft 478 kts 340°
2026-04-26 16:42 67.28248 14.66460 3392 ft 454 kts 256°
2026-04-26 16:42 67.25559 14.66222 4117 ft 485 kts 133°
2026-04-26 16:42 67.26483 14.71336 3626 ft 327 kts 328°
2026-04-26 16:42 67.27415 14.67085 2774 ft 240 kts 287°
2026-04-26 16:43 67.27748 14.63355 2555 ft 194 kts 282°
2026-04-26 16:43 67.27940 14.60134 2227 ft 181 kts 282°
2026-04-26 16:43 67.28172 14.55646 2128 ft 339 kts 297°
2026-04-26 16:43 67.30432 14.52545 4737 ft 431 kts 340°
2026-04-26 16:44 67.33208 14.48321 7851 ft 490 kts 297°
2026-04-26 16:44 67.32853 14.41651 6628 ft 341 kts 181°
2026-04-26 16:44 67.31320 14.45093 3291 ft 300 kts 102°
2026-04-26 16:44 67.30957 14.49466 2171 ft 236 kts 103°
2026-04-26 16:45 67.30829 14.50580 1941 ft 222 kts 108°
2026-04-26 16:45 67.29958 14.53242 1095 ft 176 kts 157°
2026-04-26 16:46 67.28908 14.53507 1020 ft 155 kts 218°
2026-04-26 16:46 67.28099 14.51166 920 ft 193 kts 245°
2026-04-26 16:46 67.27804 14.47943 831 ft 172 kts 267°
2026-04-26 16:46 67.27613 14.44980 519 ft 152 kts 262°
2026-04-26 16:47 67.27403 14.42480 216 ft 140 kts 257°
2026-04-26 16:47 67.27192 14.39801 87 ft 156 kts 262°
2026-04-26 16:47 67.27001 14.37483 45 ft 96 kts 257°
2026-04-26 16:47 67.26910 14.36446 36 ft 40 kts 258°
2026-04-26 16:48 67.26769 14.34898 43 ft 174 kts 257°
2026-04-26 16:48 67.26544 14.31883 975 ft 231 kts 283°